EHI
0 0 0 0 0 0 0 0 0 0 0 0 0 0 0 0 0 0 0 0 0 0 0 0 0 0 0 0 0 0 0 0 0 0 0 0 0 0
0 0 0 0 0 0 0 0 0 0 0 0 0 0 0 0 0 0 0 0 0 0 0 0 0 0 0 0 0 0 0 0 0 0 0 0 0 0
0 0 0 0 0 0 0 0 0 0 0 0 0 0 0 0 0 0 0 0 0 0 0 0 0 0 0 0 0 0 0 0 0 0 0 0 0 0
0 0 0 0 0 0 0 0 0 0 0 0 0 0 0 0 0 0 0 0 0 0 0 0 0 0 0 0 0 0 0 0 0 0 0 0 0 0
0 0 0 0 0 0 0 0 0 0 0 0 0 0 0 0 0 0 0 0 0 0 0 0 0 0 0 0 0 0 0 0 0 0 0 0 0 0
0 0 0 0 0 0 0 0 0 0 0 0 0 0 0 0 0 0 0 0 0 0 0 0 0 0 0 0 0 0 0 0 0 0 0 0 0 0
0 0 0 0 0 0 0 0 0 0 0 0 0 0 0 0 0 0 0 0 0 0 0 0 0 0 0 0 0 0 0 0 0 0 0 0 0 0
0 0 0 0 0 0 0 0 0 0 0 0 0 0 0 0 0 0 0 0 0 0 0 0 0 0 0 0 0 0 0 0 0 0 0 0 0 0
0 0 0 0 0 0 0 0 0 0 0 0 0 0 0 0 0 0 0 0 0 0 0 0 0 0 0 0 0 0 0 0 0 0 0 0 0 0
0 0 0 0 0 0 0 0 0 0 0 0 0 0 0 0 0 0 0 0 0 0 0 0 0 0 0 0 0 0 0 0 0 0 0 0 0 0
0 0 0 0 0 0 0 0 0 0 0 0 0 0 0 0 0 0 0 0 0 0 0 0 0 0 0 0 0 0 0 0 0 0 0 0 0 0
0 0 0 0 0 0 0 0 0 0 0 0 0 0 0 0 0 0 0 0 0 0 0 0 0 0 0 0 0 0 0 0 0 0 0 0 0 0
0 0 0 0 0 0 0 0 0 0 0 0 0 0 0 0 0 0 0 0 0 0 0 0 0 0 0 0 0 0 0 0 0 0 0 0 0 0
0 0 0 0 0 0 0 0 0 0 0 0 0 0 0 0 0 0 0 0 0 0 0 0 0 0 0 0 0 0 0 0 0 0 0 0 0 0
0 0 0 0 0 0 0 0 0 0 0 0 0 0 0 0 0 0 0 0 0 0 0 0 0 0 0 0 0 0 0 0 0 0 0 0 0 0
0 0 0 0 0 0 0 0 0 0 0 0 0 0 0 0 0 0 0 0 0 0 0 0 0 0 0 0 0 0 0 0 0 0 0 0 0 0
0 0 0 0 0 0 0 0 0 0 0 0 0 0 0 0 0 0 0 0 0 0 0 0 0 0 0 0 0 0 0 0 0 0 0 0 0 0
0 0 0 0 0 0 0 0 0 0 0 0 0 0 0 0 0 0 0 0 0 0 0 0 0 0 0 0 0 0 0 0 0 0 0 0 0 0
0 0 0 0 0 0 0 0 0 0 0 0 0 0 0 0 0 0 0 0 0 0 0 0 0 0 0 0 0 0 0 0 0 0 0 0 0 0
0 0 0 0 0 0 0 0 0 0 0 0 0 0 0 0 0 0 0 0 0 0 0 0 0 0 0 0 0 0 0 0 0 0 0 0 0 0
0 0 0 0 0 0 0 0 0 0 0 0 0 0 0 0 0 0 0 0 0 0 0 0 0 0 0 0 0 0 0 0 0 0 0 0 0 0
0 0 0 0 0 0 0 0 0 0 0 0 0 0 0 0 0 0 0 0 0 0 0 0 0 0 0 0 0 0 0 0 0 0 0 0 0 0
0 0 0 0 0 0 0 0 0 0 0 0 0 0 0 0 0 0 0 0 0 0 0 0 0 0 0 0 0 0 0 0 0 0 0 0 0 0
Wind_Speed
2 2 2 1 1 1 1 3 3 2 4 3 2 2 2 2 3 2 3 6 7 8 8 9 8 7 8 9 10 10 10 10 10 11 11 11 12 12
2 2 1 1 1 1 1 1 1 2 3 2 2 2 2 2 4 3 3 7 8 8 8 8 8 8 8 10 10 10 10 11 11 12 12 13 13 13
2 3 2 2 1 1 1 1 1 1 3 3 1 1 2 3 3 3 3 4 4 8 9 8 8 9 9 10 11 11 11 11 12 12 13 13 13 14
3 3 3 2 2 2 2 2 2 2 2 4 2 2 3 3 3 3 4 3 3 7 8 9 9 9 10 10 11 11 11 11 12 12 13 14 14 14
4 3 3 3 3 2 2 2 2 2 2 2 3 2 2 2 2 3 4 3 4 5 8 9 9 10 11 11 11 12 12 12 12 13 13 13 14 14
3 4 4 4 4 3 3 3 2 2 1 2 2 2 2 2 2 2 3 3 4 4 6 7 9 10 12 12 11 11 11 11 12 13 13 13 13 14
2 2 3 4 4 4 3 3 3 2 2 2 3 3 3 2 3 2 4 3 4 3 3 4 4 4 6 9 10 10 11 12 12 13 13 13 13 14
3 2 2 3 4 5 5 5 5 4 3 3 3 4 5 4 3 3 3 3 5 3 3 4 3 4 5 5 10 12 12 12 12 12 13 13 13 13
3 3 3 3 3 3 4 5 5 7 7 5 5 5 5 4 4 4 4 4 5 3 3 5 3 5 5 6 11 12 12 12 11 12 12 13 13 13
3 3 3 3 3 3 3 3 4 4 6 5 5 5 5 4 5 5 5 4 4 3 3 4 3 4 4 4 9 11 11 11 11 10 10 10 10 11
3 3 3 3 5 5 3 3 4 4 5 7 7 7 7 7 5 2 2 3 4 3 2 2 2 3 4 4 5 8 9 10 10 10 10 9 9 8
2 2 4 4 5 5 4 4 5 4 3 4 4 5 5 5 6 4 3 3 3 3 2 2 2 2 3 3 2 3 4 8 9 9 9 8 8 4
2 2 2 4 5 6 5 4 6 5 3 3 3 3 2 2 3 3 3 3 3 4 2 1 2 2 2 3 3 2 2 3 3 5 6 7 7 5
2 2 2 4 5 6 4 5 5 4 2 2 2 2 2 2 2 2 2 3 3 4 3 2 2 2 2 3 4 2 2 3 2 3 2 5 6 8
2 3 4 4 4 3 4 4 3 2 1 2 2 2 2 2 1 1 2 2 3 3 2 3 2 2 2 3 3 3 3 3 2 2 2 3 3 3
2 2 2 3 2 3 2 2 2 2 1 2 2 2 1 1 1 1 2 1 2 3 2 2 2 2 2 3 3 4 3 3 2 3 3 3 3 2
1 1 1 1 1 1 1 1 1 1 1 1 1 1 2 2 2 2 1 1 2 2 2 1 1 1 2 3 3 3 3 3 3 3 3 3 3 2
1 1 1 1 1 1 1 1 1 1 1 1 2 2 2 2 2 2 2 2 3 2 2 1 1 1 1 2 3 3 2 3 3 3 2 3 4 3
0 1 1 1 1 1 1 1 1 2 1 1 2 2 2 2 2 2 2 2 2 2 2 1 1 1 2 3 3 2 2 3 3 3 2 2 3 4
0 1 1 1 1 1 1 1 1 1 1 1 1 1 2 2 2 2 2 2 2 2 2 1 2 2 3 3 3 3 3 3 2 3 3 3 3 4
0 1 1 1 1 1 1 1 1 1 2 2 2 2 2 2 2 2 2 3 2 2 2 2 2 3 2 1 2 3 3 3 3 3 2 2 3 3
1 1 1 1 1 1 1 1 1 2 2 2 2 2 2 2 2 3 2 2 2 2 3 2 1 1 1 2 3 3 3 4 4 5 4 2 2 2
1 1 1 1 1 1 1 1 1 2 2 2 2 2 2 2 2 2 3 2 2 2 2 2 1 1 1 2 2 3 3 3 3 3 3 4 4 5
Wind_Direction
178 179 186 195 179 178 175 171 178 235 253 239 233 224 230 220 228 235 242 257 272 279 282 286 283 281 279 279 278 277 276 276 276 275 272 273 274 276
179 172 187 191 182 181 184 196 194 210 247 242 249 246 242 253 248 250 250 261 260 266 274 277 275 272 274 276 276 274 273 273 273 273 274 273 274 275
187 184 190 188 187 194 196 203 220 212 252 278 285 273 253 255 259 258 257 249 253 261 268 275 277 274 273 275 276 276 273 272 272 273 274 274 274 274
196 188 196 191 190 199 200 215 227 224 229 268 282 281 265 254 256 268 271 266 256 261 267 271 274 276 274 273 274 275 274 272 271 271 272 274 275 274
194 194 202 194 205 206 207 218 229 241 234 246 273 282 281 269 275 280 276 273 272 269 265 266 271 276 275 275 274 273 272 271 270 268 269 271 274 274
203 207 207 204 207 206 215 217 222 231 239 245 266 272 271 265 261 269 281 272 275 276 266 269 273 276 276 274 273 272 272 272 272 270 269 270 270 270
217 219 212 210 219 226 229 218 215 225 233 246 259 266 263 252 249 257 273 284 276 261 262 263 265 264 268 271 269 267 270 270 269 270 270 269 268 268
221 230 230 217 222 241 252 248 240 232 235 244 258 257 260 253 253 258 266 281 279 257 256 270 257 264 264 261 269 273 273 271 269 271 272 270 268 268
219 225 238 237 238 223 245 255 254 255 251 247 253 254 254 246 244 250 249 257 263 264 269 274 257 260 266 271 276 275 276 275 274 277 274 269 268 269
222 224 227 232 232 237 234 240 251 254 251 248 245 250 252 244 236 244 250 263 276 267 238 263 268 266 281 275 275 275 277 278 281 283 282 276 276 275
234 234 233 229 248 254 245 247 262 265 271 268 270 272 272 266 258 253 258 271 282 274 233 237 266 287 279 270 271 278 282 284 282 283 286 287 285 284
237 243 250 253 258 259 245 240 253 261 267 279 281 281 274 261 253 230 221 248 275 272 226 225 265 307 293 278 281 293 288 283 287 288 289 291 292 291
239 246 252 267 270 270 268 248 258 274 260 258 265 269 268 256 244 236 226 231 247 259 242 232 262 264 257 291 295 285 285 289 287 285 286 291 294 293
243 245 254 276 282 285 281 282 289 295 270 261 262 263 263 262 262 259 256 260 257 258 249 229 241 246 262 283 284 291 297 288 279 278 278 288 289 289
254 269 283 287 295 288 285 294 298 275 258 252 256 262 261 258 274 293 298 300 303 289 267 252 247 258 256 268 277 285 296 291 275 274 285 286 280 282
273 273 295 304 306 307 309 296 272 248 251 255 278 285 291 280 275 275 285 303 303 300 303 281 255 245 267 271 270 278 278 274 289 294 297 294 285 268
266 267 266 271 264 281 286 278 278 288 282 275 272 280 289 292 292 294 281 286 269 277 293 315 323 301 274 271 272 271 279 285 287 295 297 299 293 274
288 233 243 239 252 268 275 281 283 277 271 269 263 256 264 271 280 288 278 261 266 270 274 282 316 318 306 297 260 260 271 281 292 294 285 291 298 297
263 239 242 242 258 269 277 283 289 288 283 278 269 261 265 266 268 269 266 266 264 264 264 257 259 259 283 293 294 260 266 291 300 299 285 272 281 292
262 251 264 265 266 272 281 293 301 306 302 290 284 276 265 266 265 260 257 255 258 264 266 257 246 248 256 267 275 287 283 276 283 289 296 298 289 296
280 277 276 278 277 279 287 292 298 301 302 295 286 281 272 271 271 267 265 267 265 258 263 270 262 276 276 274 283 292 298 293 291 285 291 300 303 307
285 284 289 285 280 271 282 289 295 297 295 289 289 288 286 277 274 273 272 271 265 264 271 280 279 279 256 256 276 291 303 315 320 321 308 255 240 256
295 300 292 281 274 273 270 278 285 288 290 290 292 291 290 288 282 278 277 272 269 268 275 286 294 287 270 261 272 286 296 305 315 328 320 314 298 283